Regional Weather Roundup
Issued by NWS

Home | Current Version | Previous Version | Graphics & Text | Print | Product List | Glossary On
Versions: 1 2 3 4 5 6 7 8 9 10 11 12 13 14 15 16 17 18 19 20 21 22 23 24 25 26 27 28 29 30 31 32 33 34 35 36 37 38 39 40 41 42 43 44 45 46 47 48 49 50
065
ASUS43 KFSD 241302
RWRSD

WEATHER ROUNDUP FOR SOUTH DAKOTA
NATIONAL WEATHER SERVICE SIOUX FALLS SD
700 AM CST FRI FEB 24 2017

NOTE: "FAIR" INDICATES FEW OR NO CLOUDS BELOW 12,000 FEET WITH NO
SIGNIFICANT WEATHER AND/OR OBSTRUCTIONS TO VISIBILITY.


SDZ001>005-009-010-012>017-241400-
NORTHWEST AND NORTH CENTRAL SOUTH DAKOTA

CITY           SKY/WX    TMP DP  RH WIND       PRES   REMARKS
BUFFALO          N/A     13   9  84 NE7       29.98S WCI   3
FAITH            N/A     16  15  96 N7        30.08R WCI   6
MOBRIDGE       CLOUDY    19  13  77 MISG      30.07R
$$

SDZ012>016-024>037-041>051-057-063-072>074-241400-
SOUTHWEST AND SOUTH CENTRAL SOUTH DAKOTA

CITY           SKY/WX    TMP DP  RH WIND       PRES   REMARKS
RAPID CTY ARPT CLOUDY    18  14  84 N16       30.03R WCI   3
PIERRE         MOCLDY    20  14  77 N15       30.07R WCI   6
CUSTER         LGT SNOW  15  10  80 NE6       29.86S WCI   6
ELLSWORTH AFB  CLOUDY    18  16  91 N10       30.02  WCI   6
PHILIP         CLOUDY    23  17  78 NE15      30.08R WCI  10
PINE RIDGE     LGT SNOW  22  19  89 NE6       29.99R FOG     WCI  14
SPEARFISH      CLOUDY    16  16 100 NE7       30.00S WCI   6
WINNER         CLOUDY    20  15  81 N10       30.02R WCI   9
$$

SDZ004>011-016>023-039-040-241400-
NORTHEAST SOUTH DAKOTA

CITY           SKY/WX    TMP DP  RH WIND       PRES   REMARKS
ABERDEEN       CLOUDY    19  12  74 N16       30.07R WCI   4
WATERTOWN      CLOUDY    18  10  71 N23G37    29.94R WCI   0
BROOKINGS      CLOUDY    19  13  77 N18G26    29.90R WCI   4
SISSETON         N/A     19  13  77 N22       30.04R WCI   2
$$

SDZ017-020-022-023-036>040-048>070-241400-
SOUTHEAST SOUTH DAKOTA

CITY           SKY/WX    TMP DP  RH WIND       PRES   REMARKS
SIOUX FALLS    LGT SNOW  21  17  84 N26G33    29.87R FOG     WCI   4
HURON          CLOUDY    20  13  74 N24G33    30.00R WCI   3
CHAMBERLAIN    CLOUDY    22  16  76 N16G23    30.02R WCI   9
MITCHELL       CLOUDY    22  16  78 N22G32    29.98R WCI   6
YANKTON        CLOUDY   N/A N/A N/A N22       29.89R
$$

ABBREVIATIONS USED IN REMARKS
   TC - TEMPERATURE IN CELSIUS
  WCI - WIND CHILL INDEX
   HX - HEAT INDEX
  VSB - VISIBILITY





USA.gov is the U.S. government's official web portal to all federal, state and local government web resources and services.